Regional Weather Roundup
Issued by NWS

Home | Current Version | Previous Version | Graphics & Text | Print | Product List | Glossary On
Versions: 1 2 3 4 5 6 7 8 9 10 11 12 13 14 15 16 17 18 19 20 21 22 23 24 25 26 27 28 29 30 31 32 33 34 35 36 37 38 39 40 41 42 43 44 45 46 47 48 49 50
000
ASUS43 KIND 030609
RWRIN

WEATHER ROUNDUP FOR INDIANA
NATIONAL WEATHER SERVICE INDIANAPOLIS IN
200 AM EDT SUN MAY 03 2015

NOTE: "FAIR" INDICATES FEW OR NO CLOUDS BELOW 12,000 FEET WITH NO
SIGNIFICANT WEATHER AND/OR OBSTRUCTIONS TO VISIBILITY.

* - STATION DOES NOT REPORT WEATHER SUCH AS PRECIPITATION OR FOG.

+ - STATION NOT QUALITY CONTROLLED BY THE NATIONAL WEATHER SERVICE.
    USE DATA WITH CAUTION...ESPECIALLY DEWPOINT AND RELATIVE
    HUMIDITY OBSERVATIONS.

INZ001>003-010>013-019-020-030700-
NORTHWEST INDIANA

CITY           SKY/WX    TMP DP  RH WIND       PRES   REMARKS
GARY /AIRPORT/ PTCLDY    63  32  31 S5        30.00R
KNOX *+        PTCLDY    55  23  28 SW7       30.01R
LA PORTE +     PTCLDY    57  41  55 SW5       30.01S
6HR MIN TEMP:  56; 6HR MAX TEMP:  73;

MICHIGAN CITY+ PTCLDY    59  32  36 S7        30.01R
MONTICELLO +   CLOUDY    59  42  52 S5        30.02S
6HR MIN TEMP:  58; 6HR MAX TEMP:  69;

VALPARAISO     PTCLDY    57  39  51 S6        30.01S
6HR MIN TEMP:  57; 6HR MAX TEMP:  72;


$$

LMZ046-743>745-030700-
SOUTHERN LAKE MICHIGAN

STATION/POSITION TIME  TEMP    WIND        PRES    WAVE
                       AIR SEA DIR/SP/G            HT
                 (UTC) (F)     (DEG/KT/KT) (MB)    (FT)
BURNS HARBOR     0600   63     200/ 11/ 13 1015.9F
MICHIGAN CITY    0600   64     170/ 12/ 15   N/A
5NW MICH CITY    0600   57 51  210/  8/  8   N/A     0

$$

INZ004-005-014>016-021>024-030700-
NORTH CENTRAL INDIANA

CITY           SKY/WX    TMP DP  RH WIND       PRES   REMARKS
GOSHEN         PTCLDY    56  41  57 SW8       30.02R
6HR MIN TEMP:  56; 6HR MAX TEMP:  69;

LOGANSPORT +   MOCLDY    54  41  62 S7        30.04S
PERU/GRISSOM   MOCLDY    54  45  71 SW6       30.02F
6HR MIN TEMP:  54; 6HR MAX TEMP:  65;

ROCHESTER +    PTCLDY    61  41  48 SW7       30.03S
SOUTH BEND     PTCLDY    59  39  47 SW7       30.02R
6HR MIN TEMP:  59; 6HR MAX TEMP:  71;

WARSAW +       PTCLDY    55  41  58 CALM      30.03S

$$

INZ006>009-017-018-025>027-030700-
NORTHEAST INDIANA

CITY           SKY/WX    TMP DP  RH WIND       PRES   REMARKS
ANGOLA *+      CLEAR     48  43  81 CALM      30.03R
AUBURN +       PTCLDY    59  39  47 SW3       30.03F
FORT WAYNE     PTCLDY    54  43  66 SW8       30.04S
6HR MIN TEMP:  52; 6HR MAX TEMP:  70;

HUNTINGTON +   MOCLDY    54  46  73 CALM      30.03S
6HR MIN TEMP:  53; 6HR MAX TEMP:  68;


$$

INZ028-029-035-036-043>045-051>053-030700-
WEST CENTRAL INDIANA

CITY           SKY/WX    TMP DP  RH WIND       PRES   REMARKS
CRAWFORDSVL +  PTCLDY    49  41  72 CALM      30.04F
6HR MIN TEMP:  49; 6HR MAX TEMP:  67;

GREENCASTLE +  CLEAR     52  39  62 CALM      30.05F
LAFAYETTE      MOCLDY    54  43  66 CALM      30.03S
6HR MIN TEMP:  53; 6HR MAX TEMP:  70;

TERRE HAUTE    MOCLDY    54  47  77 CALM      30.04S
6HR MIN TEMP:  53; 6HR MAX TEMP:  70;


$$

INZ030>032-037>040-046>048-054>057-064-065-030700-
CENTRAL INDIANA

CITY           SKY/WX    TMP DP  RH WIND       PRES   REMARKS
CP ATTERBURY + PTCLDY    48  45  87 CALM      30.07S
FRANKFORT +    PTCLDY    55  44  68 S5        30.06S
6HR MIN TEMP:  53; 6HR MAX TEMP:  71;

GREENWOOD *+   PTCLDY    57  45  62 CALM      30.06S
INDIANAPOLIS   PTCLDY    60  42  51 S3        30.04S
6HR MIN TEMP:  57; 6HR MAX TEMP:  69;

-EAGLE CREEK   CLEAR     54  45  71 CALM      30.05S
6HR MIN TEMP:  54; 6HR MAX TEMP:  70;

MARION +       MOCLDY    52  43  71 S3        30.05S
MT COMFORT *+  CLEAR     50  39  66 CALM      30.06F
SHELBYVILLE    PTCLDY    54  45  71 S3        30.05S
6HR MIN TEMP:  54; 6HR MAX TEMP:  72;

ZIONSVILLE +   PTCLDY    52  46  77 CALM      30.06S
6HR MIN TEMP:  52; 6HR MAX TEMP:  69;


$$

INZ033-034-041-042-049-050-058-059-030700-
EAST CENTRAL INDIANA

CITY           SKY/WX    TMP DP  RH WIND       PRES   REMARKS
MUNCIE         PTCLDY    58  43  57 SW6       30.05S
6HR MIN TEMP:  58; 6HR MAX TEMP:  70;


$$

INZ060-061-067>069-081>083-085>088-030700-
SOUTHWEST INDIANA

CITY           SKY/WX    TMP DP  RH WIND       PRES   REMARKS
EVANSVILLE     PTCLDY    56  50  80 CALM      30.05F
6HR MIN TEMP:  55; 6HR MAX TEMP:  70;

HUNTINGBURG *+ PTCLDY    54  46  76 SE5       30.06F
6HR MIN TEMP:  54; 6HR MAX TEMP:  70;

WASHINGTON +   MOCLDY    55  45  70 SE3       30.04S
6HR MIN TEMP:  54; 6HR MAX TEMP:  66;


$$

INZ062-063-066-070>080-084-089>092-030700-
SOUTH CENTRAL AND SOUTHEAST INDIANA

CITY           SKY/WX    TMP DP  RH WIND       PRES   REMARKS
BEDFORD +      CLEAR     52  45  76 CALM      30.07S
BLOOMINGTON    PTCLDY    50  46  86 CALM      30.06S
6HR MIN TEMP:  50; 6HR MAX TEMP:  70; 6HR PCP: TRACE;

MADISON *+     MOCLDY    52  46  82 CALM      30.09S
NORTH VERNON + MOCLDY    52  52 100 CALM      30.08S
SEYMOUR +      MOCLDY    54  50  87 CALM      30.06S

$$



USA.gov is the U.S. government's official web portal to all federal, state and local government web resources and services.